Location: ??????
(38.0131°N, 23.7723°E)
Time: 05:59:28
(UTC+00:00)

Cosmos 1544 Rocket - Pass Details

Date: 17 October 2021
Orbit: 603 x 632 km, 82.5° (Epoch: 28 November)

Event Time Altitude Azimuth Distance (km) Brightness Sun altitude
Rises 16:57:43 0° 173° (S) 2,900 6.9 -15.2°
Reaches altitude 10° 16:59:59 10° 167° (SSE) 2,000 6.0 -15.6°
Maximum altitude 17:04:16 49° 93° (E) 814 3.7 -16.5°
Drops below altitude 10° 17:08:35 10° 19° (NNE) 2,020 6.0 -17.3°
Sets 17:10:53 0° 14° (NNE) 2,932 6.9 -17.8°
